HJ-2F

导读

HJ-2F即环境减灾二号F星,由中国于北京时间2023年8月9日成功发射,它采用太阳同步轨道,轨道高度499公里,设计寿命8年,配置5米S波段合成孔径雷达和应急数据处理分系统。它与HJ-2E组网后,形成全天候全球生态环境遥感监测能力,可服务水环境、生态监测与灾害预防,标志我国环境减灾“2+2”星座完成组网。

Basic Information
目录编号:
57519
目录名称:
HJ-2F
国际标识:
2023-116A
轨道中心:
EARTH
卫星名称:
HJ-2F
卫星全名:
--
卫星状态:
在轨 (已飞行1124 天)
发射日期:
2023-08-08 UTC
国别 :
中国 (CN)
星等 :
--
Orbit Information
数据来源 国际轨道数据 AOE轨道数据
星历时间 2026-09-05T15:03:51+0800
5小时前
查看轨道信息
2026-09-01T02:00:00+0800
4天前
查看轨道信息
半长轴 6884.13km 6874.256km
偏心率 0.0005907 0.0010003
轨道倾角 97.389° 97.387°
近地点辐角 240.529° 128.547°
升交点赤经 252.170° 247.715°
平近点角 119.536° 210.489°
近地点 501.926km 489.242km
远地点 510.06km 502.996km
周期 94.740分钟 94.536分钟
每日圈数 15.199498 15.232257
Detailed Information
使用方式:
暂无
2D Orbit Map
3D Orbit Map
Orbit Altitude Analysis Chart
Orbit Inclination Analysis Chart
Orbit Comprehensive Analysis Chart
View Comprehensive Chart
Conjunction Data List
Event ID Objects TCA Miss Dist (km) Collision Risk Probability Collision Risk Index (CRI) Action
CDM_260905-094805-751906-726523
HJ-2F (57519)
OBJECT T (67265)
2026-09-05T
09:48:22+0000
0.560 km
远距离
1.11951E-4 高风险 0.76
CDM_260907-034705-751906-837222
HJ-2F (57519)
2026-09-07T
03:47:39+0000
0.621 km
远距离
6.065083E-5 中风险 0.71
CDM_260905-164301-895805-751924
HJ-2F (57519)
2026-09-05T
16:43:03+0000
1.852 km
极远距离
3.57719E-6 低风险 0.46
CDM_260904-005905-266305-751921
HJ-2F (57519)
2026-09-04T
00:59:25+0000
2.111 km
极远距离
2.494076E-6 低风险 0.43
CDM_260906-103405-268605-751921
HJ-2F (57519)
2026-09-06T
10:34:53+0000
2.207 km
极远距离
2.230355E-6 低风险 0.42